Location: Bay Shore Mobile Home Park
(38.5762°N, 75.0841°W)
Time: 08:03:59
(UTC+00:00)

Envisat - Pass Details

Date: 05 October 2024
Orbit: 762 x 763 km, 98.3° (Epoch: 03 November)

Event Time Altitude Azimuth Distance (km) Brightness Sun altitude
Rises 08:12:06 0° 11° (NNE) 3,233 6.7 -33.1°
Reaches altitude 10° 08:14:24 10° 11° (N) 2,303 5.8 -32.7°
Enters shadow 08:16:42 28° 10° (N) 1,420 4.6 -32.2°
